Location: Cointrin
(46.2167°N, 6.1167°E)
Time: 07:12:18
(UTC+00:00)

Cosmos 2360 Rocket - Pass Details

Date: 08 February 2023
Orbit: 832 x 846 km, 71.0° (Epoch: 26 March)

Event Time Altitude Azimuth Distance (km) Brightness Sun altitude
Rises 18:27:30 0° 234° (SW) 3,381 6.3 -17.2°
Reaches altitude 10° 18:30:10 10° 244° (WSW) 2,452 5.7 -17.6°
Maximum altitude 18:35:13 33° 308° (NW) 1,379 3.8 -18.5°
Drops below altitude 10° 18:40:19 10° 12° (NNE) 2,473 4.5 -19.4°
Enters shadow 18:42:50 - 21° (NNE) 3,342 5.1 -19.8°
